Regional Weather Roundup
Issued by NWS

Home | Current Version | Previous Version | Graphics & Text | Print | Product List | Glossary On
Versions: 1 2 3 4 5 6 7 8 9 10 11 12 13 14 15 16 17 18 19 20 21 22 23 24 25 26 27 28 29 30 31 32 33 34 35 36 37 38 39 40 41 42 43 44 45 46 47 48 49 50
957
ASUS44 KLIX 211401
RWRLA
LOUISIANA WEATHER ROUNDUP
NATIONAL WEATHER SERVICE NEW ORLEANS LA
900 AM CDT THU AUG 21 2014

NOTE: "FAIR" INDICATES FEW OR NO CLOUDS BELOW 12,000 FEET WITH NO
      SIGNIFICANT WEATHER AND/OR OBSTRUCTIONS TO VISIBILITY.
      SKY/WX - SKY CONDITION AND SIGNIFICANT WEATHER.
      TMP - AIR TEMPERATURE.    DP   - DEWPOINT TEMPERATURE.
      RH  - RELATIVE HUMIDITY.  PRES - PRESSURE.
      HX  - HEAT INDEX.         WCI  - WIND CHILL INDEX.

*  THESE STATIONS ARE NOT NWS OR FAA STATIONS AND ARE NOT UNDER
   NWS QUALITY CONTROL.

LAZ040-048-061>063-065-066-069-211500-
SOUTHEAST LOUISIANA

CITY           SKY/WX    TMP DP  RH WIND       PRES   REMARKS
N.O. AUDUBON     N/A     89  79  73 MISG        N/A  HX 104
N.O. INTL ARPT PTSUNNY   86  76  71 CALM      30.13S HX  96
N.O. LAKEFRONT SUNNY     86  77  74 CALM      30.14S HX  97
N.O. DOWNTOWN* FAIR      88  73  62 CALM      30.14S HX  96
SLIDELL        SUNNY     84  77  79 CALM      30.14R
BATON ROUGE    PTSUNNY   80  74  81 CALM      30.14R
BOOTHVILLE     MOSUNNY   86  76  71 SW5       30.14S HX  96
BELLE CHASSE   PTSUNNY   86  75  69 S5        30.13S HX  95
BOGALUSA*      FAIR      82  75  78 CALM      30.17R
GALLIANO*      NOT AVBL
NEW ROADS*     FAIR      79  76  91 CALM      30.13S
GONZALES*      FAIR      83  80  92 CALM      30.13S HX  95
HAMMOND*       NOT AVBL
HOUMA*         MOSUNNY   84  75  74 CALM      30.13R
PORT FOURCHON* SUNNY     88  77  70 SW5       30.15S HX 100

$$

LAZ041-044-053-054-211500-
SOUTHWEST LOUISIANA

CITY           SKY/WX    TMP DP  RH WIND       PRES   REMARKS
LAKE CHARLES   NOT AVBL
LAFAYETTE      PTSUNNY   82  78  88 CALM      30.13R
PATTERSON      SUNNY    N/A N/A N/A MISG        N/A
SALT POINT       N/A     90  79  70 VRB3      30.12R HX 106
NEW IBERIA     MOSUNNY   85  78  80 S5        30.13R HX  96
CHENAULT AIRPK MOSUNNY   84  79  84 CALM      30.11S HX  96

$$

LAZ027-028-211500-
CENTRAL LOUISIANA

CITY           SKY/WX    TMP DP  RH WIND       PRES   REMARKS
FORT POLK      MOSUNNY   81  77  88 S3        30.11S
ALEXANDRIA INT PTSUNNY   81  76  84 SE7       30.10S
ALEXANDRIA     PTSUNNY   82  75  79 SE3       30.13R

$$

LAZ001-002-211500-
NORTHWEST LOUISIANA

CITY           SKY/WX    TMP DP  RH WIND       PRES   REMARKS
SHREVEPORT     MOSUNNY   80  76  87 SW7       30.10R
BARKSDALE AFB  CLOUDY    79  75  88 S6        30.11R
DTN SHREVEPORT CLOUDY    79  75  87 S9        30.11R

$$

LAZ014-016-211500-
NORTHEAST LOUISIANA

CITY           SKY/WX    TMP DP  RH WIND       PRES   REMARKS
MONROE         PTSUNNY   79  75  87 S5        30.14R
TALLULAH       MOSUNNY   83  75  77 S6        30.14R

$$




USA.gov is the U.S. government's official web portal to all federal, state and local government web resources and services.